Tracking 27188 objects as of 1-Apr-2023
HD Live streaming from Space Station
objects crossing your sky now

FENGYUN 1C DEB

Track FENGYUN 1C DEB now!
10-day predictions


NORAD ID: 32166
Int'l Code: 1999-025CTL
Perigee: 475.0 km
Apogee: 624.5 km
Inclination: 98.3 °
Period: 95.5 minutes
Semi major axis: 6920 km
RCS: 0.0014 m2 (small)
Launch date: May 10, 1999
Source: People's Republic of China (PRC)
Launch site: Taiyaun Space Center, China (TSC)

Note: This is SATELLITE DEBRIS
Your satellite tracking list
Your tracking list is empty




NASA's NSSDC Master Catalog

Two Line Element Set (TLE):
1 32166U 99025CTL 23091.57171852  .00028572  00000-0  16259-2 0  9993
2 32166  98.2712 318.4800 0108044 193.7601 166.0675 15.07903457847558
Source of the keplerian elements: AFSPC